Prague, Czech Republic

8:19 AM CET on December 17, 2017 (GMT +0100)
Ruzyne

Weather History for LKPR - October, 2012

Change the Weather History Date:

Saturday, October 13, 2012

  Actual Average Record
Temperature  
Mean Temperature 48 °F -  
Max Temperature 56 °F 50 °F 68 °F (2001)
Min Temperature 40 °F 36 °F 28 °F (2015)
Degree Days  
Heating Degree Days 17    
Moisture  
Dew Point 41 °F    
Average Humidity 78    
Maximum Humidity 93    
Minimum Humidity 47    
Precipitation  
Precipitation 0.00 in 0.04 in - ()
Sea Level Pressure  
Sea Level Pressure 29.94 in    
Wind  
Wind Speed 9 mph ()    
Max Wind Speed 16 mph    
Max Gust Speed -    
Visibility 6.3 miles    
Events      
Averages and records for this station are not official NWS values.
T = Trace of Precipitation, MM = Missing Value Source: Averaged Metar Reports

Daily Weather History Graph

Daily Weather History Graph

Search for Another Location

Airport or City:

Trip Planner

Search our weather history database for the weather conditions in past years. The results will help you decide how hot, cold, wet, or windy it might be!

Date:

Astronomy

Oct. 13, 2012 Rise Set
Actual Time 7:22 AM CEST 6:15 PM CEST
Civil Twilight 6:49 AM CEST 6:47 PM CEST
Nautical Twilight 6:11 AM CEST 7:25 PM CEST
Astronomical Twilight 5:34 AM CEST 8:02 PM CEST
Moon 4:41 AM CEST (10/13) 4:56 PM CEST (10/13)
Length of Visible Light 11h 58m
Length of Day
10h 53m
Waning Crescent, 6% of the Moon is Illuminated
Oct 13
Waning Crescent
Oct 15
New
Oct 22
First Quarter
Oct 29
Full
Nov 7
Last Quarter

Hourly Weather History & Observations

Time (CEST) Temp. Windchill Dew Point Humidity Pressure Visibility Wind Dir Wind Speed Gust Speed Precip Events Conditions
12:00 AM 48.2 °F - 46.4 °F 93% 29.92 in 5.6 mi SW 10.4 mph - N/A   Unknown
12:30 AM 48.2 °F - 46.4 °F 93% 29.92 in 5.0 mi SW 11.5 mph - N/A   Unknown
1:00 AM 48.2 °F - 46.4 °F 93% 29.92 in 5.0 mi SW 15.0 mph - N/A   Unknown
1:30 AM 48.2 °F - 44.6 °F 87% 29.95 in - SW 15.0 mph - N/A   Clear
2:00 AM 47 °F - 44 °F 85% 29.98 in 12 mi WSW 13.4 mph - -   Partly Cloudy
2:00 AM 48.2 °F - 44.6 °F 87% 29.95 in - SW 16.1 mph - N/A   Clear
2:30 AM 46.4 °F 40.7 °F 44.6 °F 93% 29.98 in 6.2 mi WSW 12.7 mph - N/A   Partly Cloudy
3:00 AM 46.4 °F 40.7 °F 42.8 °F 87% 29.98 in - SW 12.7 mph - N/A   Clear
3:30 AM 44.6 °F 38.8 °F 42.8 °F 93% 29.98 in - WSW 11.5 mph - N/A   Clear
4:00 AM 44.6 °F 37.8 °F 42.8 °F 93% 29.98 in - SW 15.0 mph - N/A   Clear
4:30 AM 42.8 °F 35.8 °F 41.0 °F 93% 29.98 in - SW 13.8 mph - N/A   Clear
5:00 AM 42.8 °F 36.6 °F 41.0 °F 93% 29.98 in - SW 11.5 mph - N/A   Clear
5:30 AM 42.8 °F 35.4 °F 41.0 °F 93% 29.98 in - SW 15.0 mph - N/A   Clear
6:00 AM 42.8 °F 36.6 °F 41.0 °F 93% 29.98 in - SW 11.5 mph - N/A   Clear
6:30 AM 42.8 °F 36.2 °F 39.2 °F 87% 30.01 in - SW 12.7 mph - N/A   Clear
7:00 AM 41.0 °F 34.3 °F 39.2 °F 93% 29.98 in - SSW 11.5 mph - N/A   Clear
7:30 AM 41.0 °F 35.2 °F 39.2 °F 93% 30.01 in - SW 9.2 mph - N/A   Clear
8:00 AM 41 °F - 40 °F 92% 30.05 in 25 mi SW 8.9 mph - -   Scattered Clouds
8:00 AM 41.0 °F 34.7 °F 39.2 °F 93% 30.01 in - SSW 10.4 mph - N/A   Clear
8:30 AM 42.8 °F 38.0 °F 41.0 °F 93% 30.01 in - South 8.1 mph - N/A   Clear
9:00 AM 42.8 °F 38.6 °F 41.0 °F 93% 30.01 in - South 6.9 mph - N/A   Clear
9:30 AM 46.4 °F 43.5 °F 42.8 °F 87% 30.01 in 6.2 mi South 5.8 mph - N/A   Partly Cloudy
10:00 AM 46.4 °F 43.5 °F 42.8 °F 87% 30.01 in 6.2 mi South 5.8 mph - N/A   Partly Cloudy
10:30 AM 48.2 °F - 42.8 °F 82% 30.01 in 6.2 mi South 5.8 mph - N/A   Partly Cloudy
11:00 AM 50.0 °F - 44.6 °F 82% 30.01 in 6.2 mi SSW 8.1 mph - N/A   Partly Cloudy
11:30 AM 51.8 °F - 42.8 °F 71% 30.01 in 6.2 mi SSW 9.2 mph - N/A   Partly Cloudy
12:00 PM 53.6 °F - 44.6 °F 72% 29.98 in 6.2 mi SSW 8.1 mph - N/A   Partly Cloudy
12:30 PM 53.6 °F - 42.8 °F 67% 29.98 in 6.2 mi SSW 8.1 mph - N/A   Partly Cloudy
1:00 PM 53.6 °F - 41.0 °F 62% 29.98 in 6.2 mi SSW 10.4 mph - N/A   Partly Cloudy
1:30 PM 55.4 °F - 42.8 °F 63% 29.98 in 6.2 mi South 8.1 mph - N/A   Partly Cloudy
2:00 PM 55 °F - 40 °F 47% 29.96 in 44 mi SW 8.9 mph - -   Scattered Clouds
2:00 PM 55.4 °F - 41.0 °F 58% 29.95 in 6.2 mi SW 10.4 mph - N/A   Partly Cloudy
2:30 PM 55.4 °F - 41.0 °F 58% 29.95 in 6.2 mi SSW 10.4 mph - N/A   Partly Cloudy
3:00 PM 55.4 °F - 37.4 °F 51% 29.95 in 6.2 mi SW 9.2 mph - N/A   Partly Cloudy
3:30 PM 55.4 °F - 37.4 °F 51% 29.92 in 6.2 mi SW 4.6 mph - N/A   Partly Cloudy
4:00 PM 55.4 °F - 39.2 °F 54% 29.92 in 6.2 mi SW 5.8 mph - N/A   Partly Cloudy
4:30 PM 53.6 °F - 41.0 °F 62% 29.89 in 6.2 mi SSW 3.5 mph - N/A   Partly Cloudy
5:00 PM 53.6 °F - 41.0 °F 62% 29.89 in 6.2 mi South 3.5 mph - N/A   Partly Cloudy
5:30 PM 51.8 °F - 41.0 °F 67% 29.89 in 6.2 mi SSE 3.5 mph - N/A   Partly Cloudy
6:00 PM 51.8 °F - 41.0 °F 67% 29.89 in 6.2 mi SSE 3.5 mph - N/A   Partly Cloudy
6:30 PM 50.0 °F - 39.2 °F 66% 29.86 in - SE 3.5 mph - N/A   Clear
7:00 PM 50.0 °F - 37.4 °F 62% 29.86 in - SSE 2.3 mph - N/A   Clear
7:30 PM 48.2 °F - 39.2 °F 71% 29.86 in - SE 4.6 mph - N/A   Clear
8:00 PM 49 °F - 39 °F 58% 29.87 in 31 mi SE 6.7 mph - -   Scattered Clouds
8:00 PM 48.2 °F - 39.2 °F 71% 29.83 in - SE 2.3 mph - N/A   Clear
8:30 PM 48.2 °F - 39.2 °F 71% 29.83 in - SE 3.5 mph - N/A   Clear
9:00 PM 44.6 °F 42.2 °F 39.2 °F 81% 29.83 in - ESE 4.6 mph - N/A   Clear
9:30 PM 44.6 °F 43.1 °F 39.2 °F 81% 29.83 in - ESE 3.5 mph - N/A   Clear
10:00 PM 44.6 °F 43.1 °F 39.2 °F 81% 29.80 in - ESE 3.5 mph - N/A   Clear
10:30 PM 44.6 °F 42.2 °F 39.2 °F 81% 29.80 in - ESE 4.6 mph - N/A   Clear
11:00 PM 44.6 °F 43.1 °F 39.2 °F 81% 29.80 in - SE 3.5 mph - N/A   Clear
11:30 PM 42.8 °F 41.1 °F 39.2 °F 87% 29.77 in - ESE 3.5 mph - N/A   Clear